Tracking 35237 objects as of 5-Sep-2026
HD Live streaming from Space Station
objects crossing your sky now

IRIDIUM 33 DEB


IRIDIUM 33 DEB is no longer on orbit


NORAD ID: 33863
Int'l Code: 1997-051AG
Launch date: September 14, 1997
Source: United States (US)
Launch site: TYURATAM MISSILE AND SPACE COMPLEX (TTMTR)
Decay date: 2010-09-22

Note: This is SATELLITE DEBRIS
Your satellite tracking list
Your tracking list is empty




NASA's NSSDC Master Catalog

Two Line Element Set (TLE):
1 33863U 97051AG  10264.92300360  .21760416  00000-0  14286+0 0  9998
2 33863 086.3981 228.8892 0037429 146.7672 219.3056 15.68021595 85671
Source of the keplerian elements: AFSPC